QPF
0.00 0.00 0.00 0.00 0.00 0.00 0.00 0.00 0.00 0.00 0.00 0.00 0.00 0.00 0.00 0.00 0.00 0.00 0.00 0.00 0.00 0.00 0.00 0.00 0.00 0.00 0.00 0.00 0.00 0.00 0.00 0.00 0.00 0.00 0.00 0.00 0.00 0.00 0.00 0.00 0.00 0.00 0.00 0.00 0.00
0.00 0.00 0.00 0.00 0.00 0.00 0.00 0.00 0.00 0.00 0.00 0.00 0.00 0.00 0.00 0.00 0.00 0.00 0.00 0.00 0.00 0.00 0.00 0.00 0.00 0.00 0.00 0.00 0.00 0.00 0.00 0.00 0.00 0.00 0.00 0.00 0.00 0.00 0.00 0.00 0.00 0.00 0.00 0.00 0.00
0.00 0.00 0.00 0.00 0.00 0.00 0.00 0.00 0.00 0.00 0.00 0.00 0.00 0.00 0.00 0.00 0.00 0.00 0.00 0.00 0.00 0.00 0.00 0.00 0.00 0.00 0.00 0.00 0.00 0.00 0.00 0.00 0.00 0.00 0.00 0.00 0.00 0.00 0.00 0.00 0.00 0.00 0.00 0.00 0.00
0.00 0.00 0.00 0.00 0.00 0.00 0.00 0.00 0.00 0.00 0.00 0.00 0.00 0.00 0.00 0.00 0.00 0.00 0.00 0.00 0.00 0.00 0.00 0.00 0.00 0.00 0.00 0.00 0.00 0.00 0.00 0.00 0.00 0.00 0.00 0.00 0.00 0.00 0.00 0.00 0.00 0.00 0.00 0.00 0.00
0.00 0.00 0.00 0.00 0.00 0.00 0.00 0.00 0.00 0.00 0.00 0.00 0.00 0.00 0.00 0.00 0.00 0.00 0.00 0.00 0.00 0.00 0.00 0.00 0.00 0.00 0.00 0.00 0.00 0.00 0.00 0.00 0.00 0.00 0.00 0.00 0.00 0.00 0.00 0.00 0.00 0.00 0.00 0.00 0.00
0.00 0.00 0.00 0.00 0.00 0.00 0.00 0.00 0.00 0.00 0.00 0.00 0.00 0.00 0.00 0.00 0.00 0.00 0.00 0.00 0.00 0.00 0.00 0.00 0.00 0.00 0.00 0.00 0.00 0.00 0.00 0.00 0.00 0.00 0.00 0.00 0.00 0.00 0.00 0.00 0.00 0.00 0.00 0.00 0.00
0.00 0.00 0.00 0.00 0.00 0.00 0.00 0.00 0.00 0.00 0.00 0.00 0.00 0.00 0.00 0.00 0.00 0.00 0.00 0.00 0.00 0.00 0.00 0.00 0.00 0.00 0.00 0.00 0.00 0.00 0.00 0.00 0.00 0.00 0.00 0.00 0.00 0.00 0.00 0.00 0.00 0.00 0.00 0.00 0.00
0.00 0.00 0.00 0.00 0.00 0.00 0.00 0.00 0.00 0.00 0.00 0.00 0.00 0.00 0.00 0.00 0.00 0.00 0.00 0.00 0.00 0.00 0.00 0.00 0.00 0.00 0.00 0.00 0.00 0.00 0.00 0.00 0.00 0.00 0.00 0.00 0.00 0.00 0.00 0.00 0.00 0.00 0.00 0.00 0.00
0.00 0.00 0.00 0.00 0.00 0.00 0.00 0.00 0.00 0.00 0.00 0.00 0.00 0.00 0.00 0.00 0.00 0.00 0.00 0.00 0.00 0.00 0.00 0.00 0.00 0.00 0.00 0.00 0.00 0.00 0.00 0.00 0.00 0.00 0.00 0.00 0.00 0.00 0.00 0.00 0.00 0.00 0.00 0.00 0.00
0.00 0.00 0.00 0.00 0.00 0.00 0.00 0.00 0.00 0.00 0.00 0.00 0.00 0.00 0.00 0.00 0.00 0.00 0.00 0.00 0.00 0.00 0.00 0.00 0.00 0.00 0.00 0.00 0.00 0.00 0.00 0.00 0.00 0.00 0.00 0.00 0.00 0.00 0.00 0.00 0.00 0.00 0.00 0.00 0.00
0.00 0.00 0.00 0.00 0.00 0.00 0.00 0.00 0.00 0.00 0.00 0.00 0.00 0.00 0.00 0.00 0.00 0.00 0.00 0.00 0.00 0.00 0.00 0.00 0.00 0.00 0.00 0.00 0.00 0.00 0.00 0.00 0.00 0.00 0.00 0.00 0.00 0.00 0.00 0.00 0.00 0.00 0.00 0.00 0.00
0.00 0.00 0.00 0.00 0.00 0.00 0.00 0.00 0.00 0.00 0.00 0.00 0.00 0.00 0.00 0.00 0.00 0.00 0.00 0.00 0.00 0.00 0.00 0.00 0.00 0.00 0.00 0.00 0.00 0.00 0.00 0.00 0.00 0.00 0.00 0.00 0.00 0.00 0.00 0.00 0.00 0.00 0.00 0.00 0.00
0.00 0.00 0.00 0.00 0.00 0.00 0.00 0.00 0.00 0.00 0.00 0.00 0.00 0.00 0.00 0.00 0.00 0.00 0.00 0.00 0.00 0.00 0.00 0.00 0.00 0.00 0.00 0.00 0.00 0.00 0.00 0.00 0.00 0.00 0.00 0.00 0.00 0.00 0.00 0.00 0.00 0.00 0.00 0.00 0.00
0.00 0.00 0.00 0.00 0.00 0.00 0.00 0.00 0.00 0.00 0.00 0.00 0.00 0.00 0.00 0.00 0.00 0.00 0.00 0.00 0.00 0.00 0.00 0.00 0.00 0.00 0.00 0.00 0.00 0.00 0.00 0.00 0.00 0.00 0.00 0.00 0.00 0.00 0.00 0.00 0.00 0.00 0.00 0.00 0.00
0.00 0.00 0.00 0.00 0.00 0.00 0.00 0.00 0.00 0.00 0.00 0.00 0.00 0.00 0.00 0.00 0.00 0.00 0.00 0.00 0.00 0.00 0.00 0.00 0.00 0.00 0.00 0.00 0.00 0.00 0.00 0.00 0.00 0.00 0.00 0.00 0.00 0.00 0.00 0.00 0.00 0.00 0.00 0.00 0.00
0.00 0.00 0.00 0.00 0.00 0.00 0.00 0.00 0.00 0.00 0.00 0.00 0.00 0.00 0.00 0.00 0.00 0.00 0.00 0.00 0.00 0.00 0.00 0.00 0.00 0.00 0.00 0.00 0.00 0.00 0.00 0.00 0.00 0.00 0.00 0.00 0.00 0.00 0.00 0.00 0.00 0.00 0.00 0.00 0.00
0.00 0.00 0.00 0.00 0.00 0.00 0.00 0.00 0.00 0.00 0.00 0.00 0.00 0.00 0.00 0.00 0.00 0.00 0.00 0.00 0.00 0.00 0.00 0.00 0.00 0.00 0.00 0.00 0.00 0.00 0.00 0.00 0.00 0.00 0.00 0.00 0.00 0.00 0.00 0.00 0.00 0.00 0.00 0.00 0.00
0.00 0.00 0.00 0.00 0.00 0.00 0.00 0.00 0.00 0.00 0.01 0.00 0.00 0.00 0.00 0.00 0.00 0.00 0.00 0.00 0.00 0.00 0.00 0.00 0.00 0.00 0.00 0.00 0.00 0.00 0.00 0.00 0.00 0.00 0.00 0.00 0.00 0.00 0.00 0.00 0.00 0.00 0.00 0.00 0.00
0.00 0.00 0.00 0.00 0.00 0.00 0.00 0.00 0.00 0.01 0.01 0.01 0.00 0.00 0.00 0.00 0.00 0.00 0.00 0.00 0.00 0.00 0.00 0.00 0.00 0.00 0.00 0.00 0.00 0.00 0.00 0.00 0.00 0.00 0.00 0.00 0.00 0.00 0.00 0.00 0.00 0.00 0.00 0.00 0.00
0.00 0.00 0.00 0.00 0.00 0.00 0.00 0.00 0.01 0.01 0.00 0.00 0.00 0.00 0.00 0.00 0.00 0.00 0.00 0.00 0.00 0.00 0.00 0.00 0.00 0.00 0.00 0.00 0.00 0.00 0.00 0.00 0.00 0.00 0.00 0.00 0.00 0.00 0.00 0.00 0.00 0.00 0.00 0.00 0.00
0.00 0.00 0.00 0.00 0.00 0.00 0.00 0.00 0.01 0.01 0.00 0.00 0.00 0.00 0.01 0.00 0.00 0.00 0.00 0.00 0.00 0.00 0.00 0.00 0.00 0.00 0.00 0.00 0.00 0.00 0.00 0.00 0.00 0.00 0.00 0.00 0.00 0.00 0.00 0.00 0.00 0.00 0.00 0.00 0.00
0.00 0.00 0.01 0.00 0.00 0.00 0.00 0.01 0.02 0.03 0.00 0.00 0.00 0.00 0.01 0.01 0.00 0.00 0.00 0.00 0.00 0.00 0.00 0.00 0.00 0.00 0.00 0.00 0.00 0.00 0.00 0.00 0.00 0.00 0.00 0.00 0.00 0.00 0.00 0.00 0.00 0.00 0.00 0.00 0.00
0.00 0.00 0.01 0.02 0.00 0.00 0.01 0.01 0.01 0.05 0.00 0.00 0.00 0.00 0.00 0.00 0.00 0.00 0.00 0.00 0.00 0.00 0.00 0.00 0.00 0.00 0.00 0.00 0.00 0.00 0.00 0.00 0.00 0.00 0.00 0.00 0.00 0.00 0.00 0.00 0.00 0.00 0.00 0.00 0.00
0.00 0.00 0.01 0.02 0.03 0.02 0.01 0.01 0.01 0.04 0.01 0.00 0.00 0.00 0.00 0.00 0.00 0.00 0.00 0.00 0.00 0.00 0.00 0.00 0.00 0.00 0.00 0.00 0.00 0.00 0.00 0.00 0.00 0.00 0.00 0.00 0.00 0.00 0.00 0.00 0.00 0.00 0.00 0.00 0.00
0.00 0.00 0.02 0.04 0.03 0.00 0.00 0.01 0.01 0.01 0.00 0.00 0.00 0.00 0.00 0.00 0.00 0.00 0.00 0.00 0.00 0.00 0.00 0.00 0.00 0.00 0.00 0.00 0.00 0.00 0.00 0.00 0.00 0.00 0.00 0.00 0.00 0.00 0.00 0.00 0.00 0.00 0.00 0.00 0.00
0.00 0.00 0.00 0.01 0.02 0.03 0.01 0.00 0.01 0.01 0.00 0.00 0.00 0.00 0.00 0.00 0.00 0.00 0.00 0.00 0.00 0.00 0.00 0.00 0.00 0.00 0.00 0.00 0.00 0.00 0.00 0.00 0.00 0.00 0.00 0.00 0.00 0.00 0.00 0.00 0.00 0.00 0.00 0.00 0.00
0.00 0.00 0.00 0.01 0.01 0.04 0.02 0.00 0.00 0.00 0.00 0.00 0.00 0.00 0.00 0.00 0.00 0.00 0.00 0.00 0.00 0.00 0.00 0.00 0.00 0.00 0.00 0.00 0.00 0.00 0.00 0.00 0.00 0.00 0.00 0.00 0.00 0.00 0.00 0.00 0.00 0.00 0.00 0.00 0.00
MSLP
1017.57 1017.03 1016.50 1016.14 1015.97 1015.61 1015.33 1015.10 1014.90 1014.74 1014.57 1014.37 1014.14 1014.03 1013.82 1013.73 1013.60 1013.63 1012.53 1009.61 1009.43 1009.15 1009.26 1009.32 1010.02 1010.06 1010.09 1010.18 1010.14 1010.34 1011.06 1011.01 1010.04 1008.88 1007.46 1006.40 1005.85 1005.41 1004.93 1004.62 1004.22 1004.02 1003.95 1003.70 1004.39
1017.27 1017.14 1016.69 1016.09 1015.68 1015.55 1015.23 1014.93 1014.73 1014.43 1014.28 1014.12 1013.90 1013.60 1013.54 1013.56 1013.42 1012.25 1008.94 1008.41 1008.62 1008.70 1009.36 1009.51 1009.78 1010.00 1010.36 1010.30 1010.36 1010.40 1010.51 1009.83 1009.23 1007.98 1006.92 1006.77 1006.73 1006.09 1005.53 1005.15 1004.81 1004.41 1004.53 1004.80 1005.11
1017.17 1016.70 1016.50 1016.20 1015.66 1015.27 1015.17 1014.84 1014.46 1014.26 1013.99 1013.85 1013.75 1013.73 1013.67 1013.48 1013.17 1008.12 1005.71 1007.07 1007.80 1008.51 1008.69 1009.24 1009.46 1009.76 1010.17 1010.16 1010.03 1009.95 1009.35 1008.99 1008.56 1007.76 1007.28 1007.00 1006.43 1005.95 1005.77 1005.72 1005.29 1005.26 1005.18 1005.31 1005.75
1017.20 1016.74 1016.38 1015.93 1015.64 1015.16 1014.79 1014.65 1014.31 1013.95 1013.84 1013.62 1013.61 1013.63 1013.70 1013.61 1010.38 1005.70 1005.65 1006.19 1007.24 1008.19 1008.73 1009.12 1009.50 1009.84 1010.02 1009.85 1009.50 1009.50 1008.67 1008.45 1007.99 1007.43 1007.48 1007.23 1006.65 1006.32 1006.22 1005.83 1005.56 1005.36 1005.12 1005.11 1005.48
1016.85 1016.53 1016.11 1015.84 1015.33 1014.97 1014.63 1014.26 1014.14 1013.81 1013.46 1013.48 1013.49 1013.63 1013.55 1012.40 1008.48 1005.49 1005.29 1005.77 1007.18 1007.84 1008.40 1008.69 1009.14 1009.57 1009.60 1009.38 1009.38 1009.14 1008.47 1007.94 1007.58 1007.41 1007.46 1007.31 1006.89 1006.49 1005.94 1005.67 1005.37 1005.35 1005.73 1005.72 1005.57
1016.53 1016.17 1015.73 1015.26 1014.99 1014.63 1014.26 1013.88 1013.57 1013.45 1013.12 1013.00 1013.17 1013.26 1013.01 1010.86 1005.94 1005.51 1005.72 1006.37 1006.55 1007.35 1008.09 1008.19 1008.36 1008.48 1008.69 1008.74 1008.87 1008.30 1008.11 1007.75 1007.46 1007.29 1007.21 1007.31 1006.71 1006.54 1005.76 1005.16 1005.33 1005.38 1005.47 1005.87 1005.94
1016.38 1015.88 1015.44 1014.98 1014.46 1014.14 1013.84 1013.48 1013.08 1012.78 1012.64 1012.67 1012.86 1013.00 1012.30 1008.15 1005.95 1005.92 1005.90 1006.15 1006.19 1006.65 1007.44 1007.63 1008.04 1008.11 1008.15 1008.29 1007.99 1007.97 1008.10 1007.70 1007.30 1006.80 1006.72 1006.62 1006.44 1005.96 1005.44 1005.17 1005.20 1005.45 1005.59 1005.61 1005.63
1016.17 1015.61 1015.17 1014.57 1014.15 1013.70 1013.28 1013.03 1012.57 1012.21 1012.19 1012.50 1012.69 1012.75 1010.74 1006.64 1006.08 1006.03 1006.09 1006.23 1006.37 1006.72 1006.98 1007.37 1007.71 1008.18 1008.08 1007.73 1007.90 1008.02 1007.98 1007.76 1006.86 1006.46 1006.00 1006.42 1005.65 1005.44 1005.19 1005.35 1005.40 1005.34 1005.57 1005.56 1005.44
1015.79 1015.34 1014.88 1014.43 1013.78 1013.37 1013.00 1012.42 1011.91 1011.40 1011.75 1012.30 1012.66 1012.38 1008.84 1005.98 1005.79 1005.25 1005.64 1005.83 1006.41 1006.88 1007.15 1007.18 1007.85 1008.03 1007.98 1008.19 1008.83 1008.79 1008.69 1008.13 1007.24 1006.42 1006.30 1006.32 1006.01 1005.13 1005.00 1005.24 1005.25 1005.21 1005.16 1005.42 1005.38
1015.20 1014.80 1014.38 1014.00 1013.60 1013.07 1012.77 1012.00 1011.75 1011.57 1011.78 1012.13 1012.06 1011.85 1007.82 1005.24 1004.53 1004.60 1004.93 1005.64 1006.07 1006.74 1007.33 1007.38 1007.65 1008.00 1008.32 1008.52 1008.75 1008.88 1008.58 1007.96 1007.45 1006.75 1006.55 1006.46 1006.39 1005.51 1004.93 1005.18 1005.01 1005.00 1004.94 1005.08 1005.22
1014.89 1014.42 1013.89 1013.54 1013.21 1012.89 1012.68 1012.46 1011.98 1011.61 1010.82 1009.23 1008.48 1007.55 1005.57 1004.23 1003.59 1004.17 1004.49 1005.47 1005.88 1006.44 1007.30 1007.24 1007.82 1008.01 1008.08 1008.17 1008.38 1008.49 1008.45 1008.21 1007.35 1006.95 1006.99 1006.77 1006.66 1006.06 1005.20 1004.82 1004.88 1005.06 1005.32 1005.09 1004.97
1014.60 1014.07 1013.52 1012.99 1012.55 1012.42 1012.59 1012.34 1009.51 1008.69 1008.41 1007.16 1007.00 1006.48 1005.09 1004.57 1004.28 1003.79 1004.17 1005.51 1006.03 1006.73 1007.05 1007.69 1007.63 1007.72 1007.99 1008.25 1008.43 1008.56 1008.57 1008.39 1007.54 1007.05 1007.40 1006.87 1006.88 1006.08 1005.35 1005.04 1004.72 1004.61 1005.06 1005.00 1004.86
1014.35 1013.85 1013.22 1012.64 1011.98 1011.50 1011.48 1010.22 1008.40 1008.24 1007.84 1005.58 1004.90 1004.80 1004.32 1004.41 1004.08 1003.70 1004.01 1004.86 1005.62 1006.53 1006.93 1007.50 1007.22 1006.99 1007.64 1007.85 1008.23 1008.22 1008.41 1008.34 1008.21 1007.33 1007.39 1007.31 1007.07 1006.30 1005.32 1004.84 1004.45 1004.55 1004.79 1005.07 1004.95
1013.68 1013.25 1012.95 1012.20 1011.71 1011.67 1010.55 1008.26 1007.91 1008.70 1007.60 1004.69 1003.90 1002.70 1003.22 1003.40 1003.46 1002.95 1003.43 1004.24 1005.25 1006.15 1006.93 1007.24 1006.74 1007.06 1007.43 1007.58 1007.77 1007.97 1007.51 1007.75 1008.15 1008.35 1008.24 1007.81 1007.78 1007.09 1005.92 1005.54 1005.09 1004.76 1004.99 1004.96 1004.75
1013.07 1012.64 1012.38 1012.50 1011.89 1011.21 1008.46 1008.15 1007.58 1008.23 1006.32 1002.92 1002.49 1001.74 1001.85 1002.64 1002.43 1002.52 1002.79 1003.67 1004.75 1005.59 1006.68 1006.79 1006.49 1006.59 1006.71 1006.63 1006.79 1007.01 1007.07 1007.81 1008.04 1008.55 1008.76 1008.81 1008.97 1007.20 1006.49 1005.82 1005.23 1004.89 1004.75 1004.55 1004.44
1012.46 1011.87 1011.60 1011.22 1011.31 1008.66 1008.02 1008.16 1007.98 1007.58 1004.38 1001.95 1001.43 1001.72 1002.26 1002.40 1002.44 1002.61 1002.87 1003.38 1004.34 1005.44 1005.98 1006.25 1006.06 1006.06 1006.04 1005.88 1006.20 1006.57 1007.28 1008.23 1008.83 1009.40 1009.73 1009.35 1009.04 1007.90 1006.76 1005.70 1005.35 1005.01 1004.81 1004.67 1004.31
1011.66 1010.83 1010.96 1010.61 1009.19 1007.89 1008.20 1007.98 1007.65 1006.07 1002.75 1001.69 1001.25 1001.57 1001.98 1002.34 1002.60 1002.85 1003.31 1003.96 1004.66 1005.54 1005.91 1006.07 1005.88 1005.66 1005.52 1005.91 1006.19 1006.88 1008.19 1009.79 1010.45 1010.82 1010.38 1009.56 1009.34 1007.53 1006.13 1005.68 1005.29 1004.96 1004.92 1004.71 1004.80
1010.92 1009.66 1008.44 1007.99 1007.48 1008.22 1007.96 1007.59 1006.60 1004.03 1002.25 1001.05 1000.80 1001.45 1001.98 1002.31 1002.80 1003.16 1003.75 1004.48 1004.90 1005.48 1006.15 1006.16 1005.98 1005.28 1004.96 1005.31 1005.93 1006.83 1008.05 1009.92 1010.70 1011.49 1011.06 1009.93 1008.88 1007.22 1006.22 1005.63 1005.05 1005.24 1005.39 1004.85 1004.98
1010.17 1008.87 1008.04 1006.03 1006.96 1007.67 1007.75 1007.07 1005.20 1003.58 1002.26 1001.59 1000.78 1001.62 1002.19 1002.33 1002.80 1003.46 1004.12 1004.46 1004.91 1005.25 1006.13 1006.40 1006.10 1005.38 1005.06 1005.07 1005.59 1006.74 1007.97 1008.64 1010.43 1011.86 1011.83 1010.76 1009.00 1007.27 1006.52 1006.14 1005.97 1006.09 1006.10 1006.00 1005.91
1010.34 1009.12 1006.95 1004.89 1006.00 1007.03 1007.19 1005.92 1004.49 1003.29 1002.12 1001.34 1000.95 1001.33 1002.18 1002.57 1003.26 1003.75 1004.54 1004.93 1005.26 1005.42 1005.62 1006.58 1006.83 1006.51 1005.97 1005.67 1006.06 1006.32 1007.47 1009.17 1010.90 1012.17 1012.40 1011.22 1009.87 1008.27 1007.64 1007.17 1006.76 1006.76 1006.66 1006.51 1006.24
1010.66 1009.02 1005.01 1004.55 1005.23 1006.38 1006.35 1005.20 1003.75 1002.71 1002.53 1001.54 1001.25 1001.74 1002.25 1002.84 1003.40 1004.28 1005.13 1005.45 1005.40 1005.87 1006.06 1007.09 1007.88 1008.09 1007.44 1007.36 1007.57 1007.93 1008.59 1009.78 1010.85 1011.84 1012.39 1012.08 1009.94 1008.04 1007.72 1007.67 1007.49 1007.05 1006.91 1006.49 1006.55
1010.90 1008.92 1005.33 1004.88 1005.62 1006.00 1005.65 1004.50 1003.51 1003.20 1002.60 1001.68 1001.73 1002.46 1002.99 1003.33 1004.05 1004.62 1005.38 1005.54 1005.79 1006.15 1007.09 1008.05 1008.95 1009.57 1009.32 1009.18 1008.83 1008.99 1009.74 1010.61 1011.59 1012.70 1012.53 1012.21 1010.33 1008.45 1008.17 1007.99 1007.88 1007.68 1007.20 1006.79 1006.49
1010.94 1009.09 1005.66 1005.36 1005.58 1005.65 1004.93 1004.11 1003.56 1003.43 1003.20 1002.65 1002.49 1002.81 1003.38 1004.34 1005.31 1005.58 1006.01 1006.42 1006.68 1007.37 1008.00 1008.57 1010.19 1011.14 1010.96 1010.61 1010.20 1010.45 1010.86 1011.41 1012.07 1012.67 1012.65 1012.39 1010.38 1008.91 1008.63 1008.40 1007.94 1008.21 1008.03 1007.70 1007.47
1011.37 1009.47 1006.74 1005.89 1005.86 1005.67 1005.14 1004.29 1003.87 1003.58 1003.33 1003.30 1003.29 1003.38 1004.25 1005.44 1005.71 1006.49 1007.09 1007.63 1007.65 1008.25 1008.88 1009.27 1010.80 1011.31 1011.60 1011.48 1011.51 1011.61 1011.62 1011.72 1012.17 1012.77 1012.34 1011.19 1010.53 1009.68 1008.97 1008.42 1008.00 1008.33 1008.45 1008.25 1008.10
1011.30 1009.25 1008.21 1007.11 1006.52 1005.90 1005.42 1004.25 1003.95 1003.64 1003.43 1004.25 1004.38 1004.58 1005.27 1006.57 1007.03 1007.72 1007.94 1008.27 1008.69 1009.09 1009.72 1010.45 1011.83 1012.24 1012.17 1012.07 1012.01 1011.83 1011.72 1011.74 1012.07 1011.92 1011.76 1010.98 1010.64 1010.32 1009.80 1009.35 1008.67 1008.77 1008.73 1008.66 1008.73
1010.78 1009.70 1008.59 1007.72 1006.93 1006.29 1005.64 1004.53 1004.44 1004.13 1004.32 1004.85 1005.44 1005.98 1006.13 1007.30 1007.78 1008.45 1008.68 1009.03 1009.52 1010.35 1011.18 1011.97 1013.07 1013.21 1013.09 1012.39 1012.15 1011.78 1011.36 1011.16 1011.30 1011.25 1010.94 1010.68 1010.23 1009.84 1009.58 1009.36 1009.51 1009.51 1009.51 1009.47 1009.28
1010.67 1009.97 1009.65 1008.32 1007.51 1006.89 1006.55 1005.73 1004.89 1004.56 1005.53 1005.82 1006.12 1006.67 1007.33 1008.03 1008.20 1008.65 1008.97 1009.39 1009.82 1010.64 1011.94 1012.77 1013.59 1014.34 1014.16 1013.44 1012.62 1011.77 1010.44 1010.50 1010.24 1009.90 1009.90 1010.02 1009.70 1009.60 1009.80 1009.84 1009.89 1009.88 1009.80 1009.68 1009.49
Thickness
5601 5601 5603 5602 5600 5599 5596 5595 5594 5594 5593 5593 5597 5603 5611 5620 5628 5635 5648 5680 5689 5696 5699 5705 5704 5708 5712 5712 5722 5723 5700 5699 5720 5732 5750 5767 5765 5782 5792 5789 5799 5809 5810 5823 5827
5602 5598 5597 5599 5600 5598 5598 5597 5597 5599 5601 5602 5604 5609 5614 5619 5627 5639 5676 5686 5691 5697 5694 5695 5693 5700 5696 5702 5707 5704 5694 5715 5730 5744 5747 5751 5757 5765 5773 5773 5783 5792 5802 5809 5817
5600 5601 5598 5597 5598 5598 5597 5598 5600 5601 5605 5608 5610 5611 5614 5620 5626 5671 5699 5694 5695 5695 5697 5694 5697 5697 5692 5699 5704 5705 5708 5726 5728 5743 5750 5749 5758 5770 5768 5760 5775 5778 5788 5795 5800
5595 5596 5596 5596 5597 5598 5600 5599 5602 5604 5606 5610 5612 5614 5616 5619 5649 5691 5698 5699 5696 5693 5693 5691 5690 5685 5686 5692 5705 5704 5723 5727 5734 5744 5741 5743 5758 5758 5763 5767 5777 5784 5792 5795 5794
5596 5595 5595 5596 5596 5598 5599 5602 5602 5605 5609 5610 5613 5614 5617 5625 5653 5693 5699 5700 5694 5692 5689 5688 5684 5683 5682 5691 5697 5699 5716 5727 5733 5735 5734 5739 5740 5750 5759 5773 5778 5781 5781 5782 5787
5597 5595 5596 5598 5598 5598 5600 5603 5606 5607 5610 5613 5612 5614 5617 5630 5684 5691 5695 5693 5696 5691 5687 5689 5689 5691 5690 5692 5691 5705 5710 5719 5725 5726 5729 5727 5736 5740 5758 5774 5773 5775 5775 5771 5774
5595 5595 5594 5595 5599 5600 5600 5603 5607 5610 5612 5612 5613 5614 5619 5650 5682 5686 5691 5691 5696 5694 5687 5690 5691 5690 5692 5692 5700 5703 5699 5707 5716 5725 5725 5731 5725 5734 5761 5769 5769 5766 5766 5768 5771
5593 5595 5594 5595 5595 5599 5602 5604 5608 5611 5613 5610 5610 5613 5624 5671 5678 5681 5684 5686 5690 5690 5689 5688 5689 5683 5688 5697 5690 5692 5694 5686 5715 5724 5730 5730 5723 5744 5756 5754 5753 5756 5756 5759 5763
5592 5593 5593 5594 5596 5597 5600 5604 5609 5613 5612 5609 5606 5609 5635 5672 5672 5682 5684 5682 5682 5682 5682 5688 5682 5677 5685 5673 5664 5668 5666 5678 5696 5719 5724 5717 5710 5738 5745 5741 5741 5746 5752 5753 5755
5593 5593 5594 5595 5594 5596 5596 5604 5606 5607 5608 5606 5608 5611 5644 5664 5677 5682 5685 5683 5679 5675 5671 5672 5668 5665 5662 5660 5643 5659 5666 5679 5684 5704 5707 5702 5699 5718 5735 5732 5739 5745 5747 5748 5750
5590 5591 5593 5595 5594 5593 5594 5594 5602 5603 5609 5625 5633 5639 5659 5675 5682 5675 5681 5674 5674 5670 5653 5666 5653 5650 5665 5668 5671 5669 5666 5667 5684 5695 5695 5691 5690 5706 5721 5729 5730 5734 5735 5738 5744
5587 5588 5590 5593 5595 5592 5589 5586 5616 5626 5622 5635 5637 5642 5657 5664 5659 5670 5677 5659 5657 5647 5657 5650 5643 5661 5664 5662 5661 5659 5655 5655 5676 5686 5679 5684 5688 5702 5719 5721 5727 5733 5733 5737 5741
5580 5583 5586 5588 5593 5595 5593 5602 5620 5622 5617 5640 5644 5645 5652 5655 5650 5659 5668 5660 5652 5644 5644 5638 5654 5663 5658 5655 5653 5654 5649 5653 5660 5682 5681 5684 5677 5695 5713 5722 5730 5730 5732 5731 5731
5581 5581 5580 5587 5589 5587 5594 5614 5618 5609 5605 5631 5640 5651 5656 5655 5648 5668 5669 5659 5650 5638 5637 5639 5653 5651 5649 5645 5647 5636 5661 5664 5662 5661 5643 5674 5639 5672 5692 5697 5708 5719 5719 5720 5724
5578 5579 5580 5574 5582 5583 5610 5609 5613 5606 5591 5645 5640 5663 5659 5648 5653 5657 5669 5657 5641 5641 5635 5638 5644 5643 5642 5647 5657 5651 5667 5658 5661 5652 5651 5651 5632 5657 5680 5688 5697 5706 5712 5716 5721
5573 5577 5578 5581 5577 5599 5604 5602 5603 5592 5590 5637 5647 5641 5640 5646 5649 5654 5653 5659 5650 5637 5638 5638 5652 5649 5647 5658 5659 5665 5657 5641 5633 5629 5619 5642 5638 5637 5665 5685 5691 5699 5704 5707 5712
5569 5576 5574 5576 5586 5597 5595 5598 5586 5578 5635 5632 5636 5638 5636 5634 5639 5640 5636 5630 5621 5613 5617 5634 5636 5646 5652 5642 5650 5644 5622 5599 5604 5603 5606 5636 5629 5638 5671 5686 5688 5692 5693 5698 5700
5564 5575 5585 5589 5594 5588 5590 5589 5577 5610 5624 5644 5642 5634 5626 5632 5631 5632 5626 5617 5627 5622 5607 5609 5610 5635 5650 5643 5633 5624 5619 5594 5593 5591 5608 5626 5621 5640 5672 5679 5685 5682 5681 5688 5691
5558 5570 5576 5596 5589 5584 5584 5572 5586 5609 5625 5624 5638 5623 5619 5629 5628 5626 5619 5618 5624 5627 5611 5604 5611 5637 5643 5649 5646 5630 5615 5626 5598 5594 5585 5602 5625 5649 5656 5659 5664 5661 5662 5666 5673
5546 5553 5572 5596 5588 5581 5576 5580 5595 5610 5625 5629 5620 5628 5615 5622 5617 5617 5611 5620 5619 5625 5629 5617 5604 5621 5631 5640 5637 5635 5635 5609 5588 5580 5576 5587 5603 5614 5636 5638 5646 5644 5647 5651 5660
5530 5543 5583 5588 5585 5574 5568 5580 5601 5618 5616 5623 5620 5620 5618 5618 5620 5614 5608 5615 5624 5619 5622 5612 5601 5605 5616 5614 5608 5607 5604 5601 5593 5580 5564 5559 5589 5628 5630 5631 5638 5643 5642 5649 5649
5518 5537 5570 5576 5565 5565 5570 5586 5600 5599 5610 5617 5619 5614 5609 5614 5610 5609 5606 5611 5619 5619 5606 5603 5586 5583 5595 5594 5607 5607 5596 5587 5575 5576 5566 5551 5571 5621 5624 5621 5623 5626 5632 5640 5646
5509 5520 5558 5562 5558 5562 5571 5585 5593 5590 5593 5603 5607 5607 5609 5600 5591 5597 5594 5602 5606 5601 5595 5595 5571 5561 5571 5580 5585 5581 5584 5579 5570 5566 5572 5569 5580 5610 5609 5610 5615 5613 5614 5619 5624
5497 5522 5544 5549 5550 5556 5567 5576 5580 5588 5591 5597 5598 5604 5597 5585 5590 5588 5586 5586 5595 5591 5590 5586 5562 5564 5555 5567 5567 5569 5571 5575 5570 5550 5568 5576 5578 5592 5596 5603 5609 5603 5600 5602 5605
5485 5517 5524 5532 5541 5550 5555 5574 5577 5581 5588 5583 5582 5589 5587 5576 5578 5570 5575 5578 5579 5582 5574 5570 5558 5562 5563 5563 5562 5563 5562 5562 5558 5567 5558 5576 5571 5576 5579 5584 5598 5594 5592 5593 5593
5485 5500 5512 5521 5534 5540 5548 5569 5566 5571 5574 5572 5567 5571 5574 5565 5568 5561 5562 5566 5566 5562 5557 5546 5537 5550 5551 5559 5558 5557 5560 5559 5556 5559 5561 5564 5567 5572 5575 5573 5574 5577 5577 5577 5579
5475 5486 5491 5512 5524 5530 5535 5546 5559 5564 5561 5562 5561 5561 5558 5557 5559 5558 5561 5558 5562 5556 5542 5540 5530 5518 5527 5540 5546 5545 5558 5560 5564 5567 5567 5557 5564 5568 5563 5561 5559 5561 5563 5565 5567